Weather Roundup
Issued by NWS Springfield, MO

Home | Current Version | Previous Version | Text Only | Print | Product List | Glossary On
Versions: 1 2 3 4 5 6 7 8 9 10 11 12 13 14 15 16 17 18 19 20 21 22 23 24 25 26 27 28 29 30 31 32 33 34 35 36 37 38 39 40 41 42 43 44 45 46 47 48 49 50
000
NZUS99 KSGF 182057
HRRSGF

HOURLY WEATHER
NATIONAL WEATHER SERVICE SPRINGFIELD MO
300 PM CST SAT NOV 18 2017

......SGF CWA......

CITY           SKY/WX    TMP DP  RH WIND       PRES   REMARKS
SPRINGFIELD    CLOUDY    45  41  86 NW16G29   29.93R
JOPLIN         CLOUDY    47  35  63 NW15G24   30.01R
WEST PLAINS    LGT RAIN  46  36  68 NW32G47   29.84R
ROLLA          CLOUDY    42  40  92 NW16G30   29.82R
BRANSON        LGT RAIN  45  39  81 NW17G36   29.94R

......SURROUNDING SGF CWA......

CITY           SKY/WX    TMP DP  RH WIND       PRES   REMARKS
CHANUTE        SUNNY     53  36  52 NW24G30   30.04R
PARSONS        SUNNY     55  35  47 NW16G36   30.05R
COFFEYVILLE    SUNNY     55  34  45 NW24G32   30.05R
EMPORIA        MOSUNNY   54  32  43 N23G30    30.05R
HARRISON AR    LGT RAIN  45  39  79 NW17G28   29.93R

......KANSAS AND MISSOURI......

CITY           SKY/WX    TMP DP  RH WIND       PRES   REMARKS
KANSAS CTY INT MOSUNNY   50  32  50 NW15G29   29.98R
DOWNTOWN KC    SUNNY     51  30  44 NW22G32   29.98R
COLUMBIA       CLOUDY    44  39  82 NW21G29   29.83R
SEDALIA        CLOUDY    47  37  68 NW20G26   29.92R
ST JOSEPH      MOSUNNY   50  32  50 NW22G32   29.99R
ST LOUIS       LGT RAIN  41  40  96 NW16G23   29.73R
SPIRIT OF STL  LGT RAIN  43  40  89 NW22G30   29.74R
WICHITA        MOSUNNY   56  28  34 N26G37    30.10R
TOPEKA         PTSUNNY   54  33  45 N20G28    30.02R
OLATHE         LGT RAIN  49  31  49 NW17G32   29.99R

......TENNESSEE......

CITY           SKY/WX    TMP DP  RH WIND       PRES   REMARKS
MEMPHIS        CLOUDY    65  56  72 NW32G46   29.60R
NASHVILLE      CLOUDY    66  62  87 SW14G24   29.50F

......ARKANSAS.......

CITY           SKY/WX    TMP DP  RH WIND       PRES   REMARKS
FAYETTEVILLE   CLOUDY    45  40  82 NW20G29   30.02R
FT SMITH       CLOUDY    52  40  63 NW23G36   30.03R
LITTLE ROCK    CLOUDY    60  45  57 NW29G39   29.83R

......OKLAHOMA.......

CITY           SKY/WX    TMP DP  RH WIND       PRES   REMARKS
TULSA          MOSUNNY   55  31  39 N13G23    30.08R
PONCA CITY     MOSUNNY   57  32  38 N24G37    30.11R
MCALESTER      LGT RAIN  56  35  45 N22G36    30.08R
OKLAHOMA CITY  PTSUNNY   53  31  42 N26G33    30.15R

......IOWA............

CITY           SKY/WX    TMP DP  RH WIND       PRES   REMARKS
DES MOINES     MOSUNNY   45  28  51 NW21G35   29.89R
QUAD CITIES    CLOUDY    42  34  73 NW22G30   29.69R

......ILLINOIS........

CITY           SKY/WX    TMP DP  RH WIND       PRES   REMARKS
QUINCY         CLOUDY    43  39  86 NW18G25   29.74R
CHICAGO        CLOUDY    39  35  86 N18G28    29.53R WCI  30



USA.gov is the U.S. government's official web portal to all federal, state and local government web resources and services.